Regional Weather Roundup
Issued by NWS Charleston, SC

Current Version | Previous Version | Graphics & Text | Print | Product List | Glossary On
Versions: 1 2 3 4 5 6 7 8 9 10 11 12 13 14 15 16 17 18 19 20 21 22 23 24 25 26 27 28 29 30 31 32 33 34 35 36 37 38 39 40 41 42 43 44 45 46 47 48 49 50
000 ASUS42 KCHS 030327 RWRCHS REGIONAL WEATHER ROUNDUP NATIONAL WEATHER SERVICE CHARLESTON SC 1100 PM EDT THU JUL 02 2015 NOTE: "FAIR" INDICATES FEW OR NO CLOUDS BELOW 12,000 FEET WITH NO SIGNIFICANT WEATHER AND/OR OBSTRUCTIONS TO VISIBILITY. NOT ALL STATIONS ARE QUALITY CONTROLLED BY THE NATIONAL WEATHER SERVICE. USE DATA WITH CAUTION...ESPECIALLY DEWPOINT OBSERVATIONS. SCZ027-030-031-034>040-042>050-030400- ...SOUTHEAST SOUTH CAROLINA... CITY SKY/WX TMP DP RH WIND PRES REMARKS N CHARLESTON LGT RAIN 71 69 93 SW6 30.01F WATERFRONT PAR N/A 72 70 93 VRB3 29.99F MOUNT PLEASANT LGT RAIN 72 72 100 CALM 30.00F JOHNS ISLAND FAIR 72 72 100 CALM 30.01S PINOPOLIS NOT AVBL MONCKS CORNER DRIZZLE 72 68 88 S5 30.00S SUMMERVILLE FAIR 70 70 100 S3 30.02S BEAUFORT MCAS LGT RAIN 72 71 97 S5 30.01F BEAUFORT ARPT DRIZZLE 72 72 100 CALM 30.01S HILTON HEAD IS CLOUDY 73 73 100 SW3 30.03S WALTERBORO CLOUDY 70 68 94 SW6 30.03 ALLENDALE FAIR 70 70 100 SW3 30.01S ...SOUTHERN MIDLANDS AND PEE DEE... CITY SKY/WX TMP DP RH WIND PRES REMARKS GEORGETOWN NOT AVBL KINGSTREE NOT AVBL ORANGEBURG CLOUDY 71 68 90 SW3 30.01R BARNWELL FAIR 72 70 94 SW7 30.02R AIKEN NOT AVBL MANNING LGT RAIN 70 70 100 SW5 30.02R COLUMBIA CLOUDY 71 67 87 SW6 29.98R SUMTER CLOUDY 70 68 93 S7 29.97R FLORENCE CLOUDY 71 70 96 S10 29.98S MYRTLE BEACH CLOUDY 72 66 83 SW8 30.01S N MYRTLE BEACH LGT RAIN 72 69 90 W9 29.98F $$ GAZ063-065-086>088-099>101-113>116-118-119-134>141-150-030400- ...SOUTHEAST GEORGIA... CITY SKY/WX TMP DP RH WIND PRES REMARKS SAVANNAH ARPT CLOUDY 73 70 90 CALM 30.03F HUNTER AAF CLOUDY 73 71 94 NW3 30.00F FORT STEWART CLOUDY 72 70 93 S5 30.03R STATESBORO NOT AVBL SYLVANIA CLOUDY 73 73 100 SW3 30.04S CLAXTON FAIR 70 70 100 CALM 30.04R FOG ...CSRA...CENTRAL AND FAR SOUTHEAST GEORGIA... CITY SKY/WX TMP DP RH WIND PRES REMARKS THOMSON MOCLDY 72 72 99 S5 30.05S AUGUSTA-BUSH CLOUDY 70 68 93 SW7 30.00R AUGUSTA-DANIEL CLOUDY 71 67 87 S7 30.02R SWAINSBORO FAIR N/A N/A N/A S5 30.05R VIDALIA MOCLDY 72 70 94 S5 30.05R EASTMAN FAIR 73 73 100 SW3 30.06R HAZLEHURST FAIR 73 73 100 S3 30.04S ALMA MOCLDY 71 70 96 S6 30.05R WAYCROSS MOCLDY 74 74 100 SW5 30.07S JESUP FAIR 73 73 100 SW3 30.07R BAXLEY MOCLDY 73 72 94 SW3 30.05S BRUNSWICK CLOUDY 72 72 100 CALM 30.08R SAINT SIMONS CLOUDY 73 71 93 SW7 30.05S $$ SCZ027-028-034-036>038-045-046-048>050-GAZ119-141-030400- ...LAKE AND SUPPLEMENTAL COASTAL OBSERVATIONS... STATION/POSITION TIME TEMP WIND PRES WAVE SWELL AIR SEA DIR/SP/G HT/PER HT/PER/DIR (UTC) (F) (DEG/KT/KT) (MB) (FT/S) (FT/S/D) UPR LAKE MARION NOT AVBL WINYAH BAY 0200 72 260/ 6 1016.0R LAKE MURRAY 0200 74 240/ 7/ 10 1013.9R ACE BASIN NERRS NOT AVBL FORT PULASKI 0300 74 84 300/ 5/ 6 1017.2F SAPELO ISLAND 0300 75 260/ 5 1018.0R $$ ANZ835-935-AMZ111-154-330-350-352-354-370-450-454-472-030400- ...C-MAN AND BUOY OBSERVATIONS... STATION/POSITION TIME TEMP WIND PRES WAVE SWELL AIR SEA DIR/SP/G HT/PER HT/PER/DIR (UTC) (F) (DEG/KT/KT) (MB) (FT/S) (FT/S/D) BUOY 41004 0250 75 82 320/ 19/ 21 1015.1F 6/ 6 2/ 9 BUOY 41008 0250 77 79 330/ 10/ 12 1017.4R 3/ 5 2/190/ 5 FOLLY BEACH CMAN 0300 72 290/ 2/ 3 1015.9F CAPERS NEARSHORE 0208 74 280/ 14/ 19 1016.9R FRIPP NEARSHORE 0200 73 280/ 8/ 10 1016.8F STATION/POSITION TIME TEMP WIND PRES WAVE SWELL AIR SEA DIR/SP/G HT/PER HT/PER/DIR (UTC) (F) (DEG/KT/KT) (MB) (FT/S) (FT/S/D) 5E ST. MARYS GA 0221 77 N/A 2/ 9 FRYING PAN BUOY 0250 82 80 220/ 21/ 25 1014.7R 6/ 6 BUOY 41025 0250 82 83 220/ 27/ 35 1012.1R 8/ 6 2/340/11 CAPE LOOKOUT NC 0300 81 230/ 13/ 17 1013.1R BUOY 41002 0250 81 80 210/ 17/ 21 1019.1R 6/ 7 3/240/ 7 BUOY 41010 0220 84 85 210/ 8/ 10 1019.9R ST AUGUSTINE FL 0300 74 73 230/ 4/ 5 1019.7R $$

USA.gov is the U.S. government's official web portal to all federal, state and local government web resources and services.